RADFXSAT-2 (AO-109) (47311 NORAD) Tracking and Keplerian Element Data

This shows tracking and keplerian element data for the satellite.

Feedback or suggestion? Click here.




ElementValue
Catalog47311
NameRADFXSAT-2 (AO-109)
Epoch Orbit1242
Epoch Day99.81884698
Epoch Year2021
RAAN188.0845
Inclination60.6862
Eccentricity0.0025544
Argument of Perigee7.1177
Mean Anonmoly353.0267
Mean Motion15.21432992
Decay Rate5.32E-06
L11 47311U 21002C 21099.81884698 .00000532 00000-0 35463-4 0 9999
L22 47311 60.6862 188.0845 0025544 7.1177 353.0267 15.21432992 12426

Live tracking and technical data element details for RADFXSAT-2 (AO-109) (NORAD 47311). RADFXSAT-2 (AO-109) can be tracked NOW for your location showing map with azimuth and elevation plus other details from your city location.

Track the satellite on the map from your city or location and see movement details for azimuth, elevation, latitude, longitude, range, height, and movement on the map or in text.







IsCatalogInMostPopularTable: catalog: 47311, numindb: 32
Update: records affected: 1



GetName: 47311 RADFXSAT-2 (AO-109)

Hit Count: updated at: Sat, 10 Apr 2021 19:13:45 GMT